This is the latest recevied weather packets stored in our database for station/object SA7AHC. If no packets are shown the sender has not sent any weather packets the latest 10 day(s).
| Time | Temp. | Humidity | Pressure | Rain* | Wind** | Luminosity | Snow |
|---|---|---|---|---|---|---|---|
| 1788248250 | 13.33° C | 99% | 1010.2 hPa | 0 mm | - | 172 W/m² | - |
| 1788247650 | 13.33° C | 98% | 1010.2 hPa | 0 mm | - | 83 W/m² | - |
| 1788247063 | 13.33° C | 99% | 1009.9 hPa | 0 mm | - | 72 W/m² | - |
| 1788246449 | 13.33° C | 99% | 1009.9 hPa | 0 mm | - | 56 W/m² | - |
| 1788245850 | 13.33° C | 99% | 1009.9 hPa | 0 mm | - | 65 W/m² | - |
| 1788245243 | 13.33° C | 99% | 1009.7 hPa | 0 mm | - | 74 W/m² | - |
| 1788244643 | 13.33° C | 99% | 1009.8 hPa | 0 mm | - | 98 W/m² | - |
| 1788244044 | 13.33° C | 99% | 1009.8 hPa | 0 mm | - | 62 W/m² | - |
| 1788243441 | 12.78° C | 99% | 1009.8 hPa | 0 mm | - | 74 W/m² | - |
| 1788242839 | 12.78° C | 99% | 1009.8 hPa | 0 mm | - | 60 W/m² | - |
| 1788242237 | 12.78° C | 99% | 1009.8 hPa | 0 mm | - | 49 W/m² | - |
| 1788241640 | 12.78° C | 98% | 1009.8 hPa | 0 mm | - | 39 W/m² | - |
| 1788241035 | 12.78° C | 98% | 1009.6 hPa | 0 mm | - | 47 W/m² | - |
| 1788240422 | 12.78° C | 99% | 1009.6 hPa | 0 mm | - | 42 W/m² | - |
| 1788239821 | 12.78° C | 99% | 1009.7 hPa | 0 mm | - | 30 W/m² | - |
| 1788239221 | 12.78° C | 98% | 1009.4 hPa | 0 mm | - | 19 W/m² | - |
| 1788238621 | 12.78° C | 98% | 1009.4 hPa | 0 mm | - | 7 W/m² | - |
| 1788238021 | 12.78° C | 98% | 1009.3 hPa | 0 mm | - | 9 W/m² | - |
| 1788237421 | 12.78° C | 98% | 1009.3 hPa | 0 mm | - | 5 W/m² | - |
| 1788236821 | 12.78° C | 98% | 1009.3 hPa | 0 mm | - | 0 W/m² | - |
| 1788236221 | 12.78° C | 98% | 1009.3 hPa | 0 mm | - | 0 W/m² | - |
| 1788235621 | 12.78° C | 98% | 1009.3 hPa | 0 mm | - | 0 W/m² | - |
| 1788235027 | 12.78° C | 99% | 1009.3 hPa | 0 mm | - | 0 W/m² | - |
| 1788234421 | 12.78° C | 99% | 1009.3 hPa | 0 mm | - | 0 W/m² | - |
| 1788233823 | 12.78° C | 99% | 1009.1 hPa | 0 mm | - | 0 W/m² | - |
* Rain latest hour (hover to see other rain measurements)
** Current wind speed in m/s (hover to see current wind gust speed)